Regional Weather Roundup
Issued by NWS

Home | Current Version | Previous Version | Graphics & Text | Print | Product List | Glossary On
Versions: 1 2 3 4 5 6 7 8 9 10 11 12 13 14 15 16 17 18 19 20 21 22 23 24 25 26 27 28 29 30 31 32 33 34 35 36 37 38 39 40 41 42 43 44 45 46 47 48 49 50
000
ASUS43 KBIS 302010
RWRND

NORTH DAKOTA REGIONAL WEATHER ROUNDUP
NATIONAL WEATHER SERVICE BISMARCK ND
300 PM CDT SUN APR 30 2017

NOTE: "FAIR" INDICATES FEW OR NO CLOUDS BELOW 12,000 FEET WITH NO
SIGNIFICANT WEATHER AND/OR OBSTRUCTIONS TO VISIBILITY.


NDZ001>003-009>011-017-302100-
NORTHWEST NORTH DAKOTA

CITY           SKY/WX    TMP DP  RH WIND       PRES   REMARKS
WILLISTON      FAIR      68  20  16 S10       29.87F
MINOT          PTSUNNY   67  22  18 S8G17     29.91F
MINOT AFB      SUNNY     67  24  19 S13G22    29.89F
$$

NDZ018>021-031>035-040>046-302100-
SOUTHWEST NORTH DAKOTA

CITY           SKY/WX    TMP DP  RH WIND       PRES   REMARKS
BISMARCK       FAIR      63  24  22 SE10      29.94F
DICKINSON      FAIR      61  14  16 S9        29.90F
GARRISON         N/A     62  20  19 SW6       29.92F
HETTINGER ARPT SUNNY     61  22  22 E6        29.94F
$$

NDZ004>008-012>016-024-026-027-054-302100-
NORTHEAST NORTH DAKOTA

CITY           SKY/WX    TMP DP  RH WIND       PRES   REMARKS
GRAND FORKS    MOSUNNY   63  27  25 E14G22    29.97F
GRND FRKS AFB  SUNNY     61  27  27 E13G22    29.98F
DEVILS LAKE    FAIR      59  26  28 SE12      29.97F
$$

NDZ022-023-025-028>030-036>039-047>053-302100-
SOUTHEAST NORTH DAKOTA

CITY           SKY/WX    TMP DP  RH WIND       PRES   REMARKS
FARGO          MOSUNNY   61  19  19 NE12G23   29.92F
JAMESTOWN      FAIR      61  25  25 E16G22    29.93F
$$





USA.gov is the U.S. government's official web portal to all federal, state and local government web resources and services.